Location: Lake Zurich
(42.1970°N, 88.0930°W)
Time: 06:09:13
(UTC-05:00)

Amateur Radio Satellites - All Passes

Search period start: 30 May 2017 05:39
Search period end: 31 May 2017 05:39
Location: Lake Zurich, 42.1970°N, 88.0930°W

Satellite Date Start Highest point End Downlink Frequencies (MHz)
Time Altitude Azimuth
PCSat 30 May 05:39:37 05:41:36 12° 258° (WSW) 05:43:35 145.827
KKS-1 30 May 05:43:32 05:47:02 23° 265° (W) 05:50:33 437.445
RS-15 30 May 05:45:48 05:55:44 27° 345° (NNW) 06:05:37 29.354- 29.394
AO-7 30 May 05:50:00 05:57:46 45° 299° (WNW) 06:05:32 .
LilacSat-2 30 May 05:57:05 05:58:51 13° 91° (E) 06:00:37 437.200
STRAND 1 30 May 05:59:51 06:02:35 15° 60° (ENE) 06:05:20 437.568
STARS 30 May 06:02:41 06:06:33 31° 263° (W) 06:10:28 437.465
SO-50 30 May 06:14:01 06:18:30 62° 54° (NE) 06:22:59 436.795
XW-2D 30 May 06:25:14 06:28:32 26° 96° (E) 06:31:48 145.860 - 145.880
NUDT-PHONESAT 30 May 06:29:41 06:32:41 22° 95° (E) 06:35:40 437.300
XW-2B 30 May 06:33:09 06:36:38 31° 96° (E) 06:40:05 145.730 - 145.750
XW-2F 30 May 06:42:42 06:46:21 40° 98° (E) 06:49:56 145.980 - 146.000
KAITUO 1B 30 May 06:43:33 06:47:01 33° 97° (E) 06:50:27 145.475/437.950
XW-2C 30 May 06:46:50 06:50:35 47° 99° (E) 06:54:17 145.795 - 145.815
BEESAT 2 30 May 06:51:55 06:54:41 18° 317° (NW) 06:57:30 435.950
DOVE 4 30 May 06:59:02 07:03:12 66° 285° (WNW) 07:07:30 437.250
HO-68 30 May 07:06:51 07:12:01 21° 91° (E) 07:17:07 435.675
CUTE-I 30 May 07:11:38 07:16:59 69° 102° (ESE) 07:22:18 437.470
CUTE 1.7 + AOD 2 30 May 07:18:05 07:20:44 16° 91° (E) 07:23:21 437.475
NO-84 30 May 07:27:31 07:31:49 56° 134° (SE) 07:36:04 435.350 FM
LilacSat-2 30 May 07:29:39 07:33:23 46° 287° (WNW) 07:37:04 437.200
XW-2A 30 May 07:30:24 07:32:31 15° 93° (E) 07:34:37 145.665 - 145.685
STRAND 1 30 May 07:36:02 07:41:07 76° 257° (WSW) 07:46:15 437.568
AO-7 30 May 07:46:46 07:48:23 11° 321° (NW) 07:49:59 .
SO-50 30 May 07:55:53 07:58:28 15° 250° (WSW) 08:01:02 436.795
SEEDS 30 May 07:58:41 08:02:21 28° 96° (E) 08:05:57 437.485
XW-2D 30 May 07:59:34 08:02:34 22° 292° (WNW) 08:05:33 145.860 - 145.880
RS-15 30 May 08:03:23 08:13:43 29° 21° (NNE) 08:23:43 29.354- 29.394
NUDT-PHONESAT 30 May 08:03:25 08:06:32 25° 291° (WNW) 08:09:38 437.300
XW-2B 30 May 08:07:52 08:10:36 19° 293° (WNW) 08:13:19 145.730 - 145.750
ZACube-1 30 May 08:09:39 08:10:10 10° 88° (E) 08:10:41 437.345
XW-2F 30 May 08:17:52 08:20:08 15° 295° (WNW) 08:22:23 145.980 - 146.000
KAITUO 1B 30 May 08:18:12 08:20:46 18° 293° (WNW) 08:23:19 145.475/437.950
XW-2C 30 May 08:22:28 08:24:21 13° 296° (WNW) 08:26:14 145.795 - 145.815
M-CUBED/EXP-1 PRIME 30 May 08:25:59 08:30:07 86° 251° (WSW) 08:33:57 437.505
CUBEBUG 2 30 May 08:36:42 08:41:18 60° 100° (E) 08:45:58 437.445
UWE-3 30 May 08:38:33 08:42:53 38° 97° (E) 08:47:14 435.000/436.395/437.385
FO-29 30 May 08:44:26 08:47:49 18° 59° (ENE) 08:51:19 435.910
AAUSAT CUBESAT 2 30 May 08:45:45 08:49:44 44° 99° (E) 08:53:39 437.432
PRISM 30 May 08:48:40 08:51:19 17° 65° (ENE) 08:53:59 437.425
CUTE 1.7 + AOD 2 30 May 08:52:43 08:56:47 44° 288° (WNW) 09:00:48 437.475
CUTE-I 30 May 08:53:05 08:56:26 17° 300° (WNW) 08:59:48 437.470
HO-68 30 May 08:53:11 09:00:24 75° 289° (WNW) 09:07:33 435.675
Oscar 11 30 May 08:54:59 08:58:23 22° 94° (E) 09:01:45 .
XW-2A 30 May 09:02:16 09:05:19 30° 289° (WNW) 09:08:21 145.665 - 145.685
NO-84 30 May 09:05:44 09:09:38 31° 331° (NNW) 09:13:26 435.350 FM
TIGRISAT 30 May 09:22:58 09:26:39 28° 68° (ENE) 09:30:24 435.000
AO-73 30 May 09:25:53 09:30:25 62° 101° (E) 09:34:56 145.935
SEEDS 30 May 09:34:29 09:37:55 25° 292° (WNW) 09:41:19 437.485
ZACube-1 30 May 09:42:23 09:46:58 80° 284° (WNW) 09:51:34 437.345
UNISAT 6 30 May 09:55:15 09:59:31 69° 74° (ENE) 10:03:54 437.425
DELFI C3 30 May 10:02:21 10:05:52 31° 97° (E) 10:09:21 145.870
CUBEBUG 2 30 May 10:14:41 10:17:28 16° 296° (WNW) 10:20:15 437.445
UWE-3 30 May 10:15:28 10:19:07 23° 293° (WNW) 10:22:46 435.000/436.395/437.385
RS-15 30 May 10:16:53 10:29:08 68° 51° (NE) 10:40:44 29.354- 29.394
AAUSAT CUBESAT 2 30 May 10:22:16 10:24:49 16° 295° (WNW) 10:27:21 437.432
PRISM 30 May 10:22:20 10:26:16 42° 261° (W) 10:30:12 437.425
FO-29 30 May 10:27:15 10:32:21 61° 259° (W) 10:37:44 435.910
POLYITAN 1 30 May 10:27:18 10:28:04 10° 61° (ENE) 10:28:51 437.675
Oscar 11 30 May 10:30:38 10:34:34 34° 290° (WNW) 10:38:28 .
QB50P2 30 May 10:34:41 10:36:52 14° 63° (ENE) 10:39:04 145.880/145.840
EO-88 30 May 10:37:44 10:41:23 59° 100° (E) 10:45:01 145.990 - 145.960
HO-68 30 May 10:42:57 10:46:56 16° 309° (NW) 10:50:55 435.675
NO-84 30 May 10:45:54 10:48:19 15° 352° (N) 10:50:41 435.350 FM
TIGRISAT 30 May 10:59:43 11:03:18 26° 265° (W) 11:06:59 435.000
AO-73 30 May 11:03:36 11:06:08 15° 297° (WNW) 11:08:39 145.935
LO-87 30 May 11:07:53 11:10:15 17° 93° (E) 11:12:37 145.935 - 145.965
EO-79 30 May 11:08:37 11:12:13 28° 69° (ENE) 11:15:50 145.935-145.965
YUBILEINY 30 May 11:21:25 11:29:40 41° 72° (ENE) 11:37:51 435.215
AIST 2D 30 May 11:24:04 11:27:35 87° 78° (ENE) 11:31:09 435.315
ESTCUBE 1 30 May 11:24:51 11:27:55 18° 92° (E) 11:30:57 437.505/2401.250
UNISAT 6 30 May 11:35:54 11:36:45 10° 272° (W) 11:37:36 437.425
DELFI C3 30 May 11:37:34 11:40:27 20° 293° (WNW) 11:43:18 145.870
NANOSAT C BR1 30 May 11:50:23 11:54:34 77° 74° (ENE) 11:58:46 145.865
AO-85 30 May 11:51:33 11:55:07 30° 49° (NE) 11:58:51 145.980
DUCHIFAT 1 30 May 11:58:44 12:02:53 85° 74° (ENE) 12:07:06 145.980
POLYITAN 1 30 May 11:59:02 12:03:13 77° 259° (W) 12:07:27 437.675
BUGSAT 1 30 May 12:00:34 12:03:54 26° 68° (ENE) 12:07:15 437.445
BEESAT 3 30 May 12:03:33 12:06:09 16° 41° (NE) 12:08:43 437.485
VELOX 1 30 May 12:03:44 12:04:48 11° 89° (E) 12:05:52 145.980
QB50P2 30 May 12:08:04 12:12:11 55° 260° (W) 12:16:21 145.880/145.840
EO-88 30 May 12:14:11 12:14:33 10° 297° (WNW) 12:14:54 145.990 - 145.960
NO-84 30 May 12:24:39 12:27:17 16° 13° (NNE) 12:29:49 435.350 FM
O/OREOS (USA 219) 30 May 12:26:15 12:30:12 29° 59° (ENE) 12:34:06 437.305
RS-15 30 May 12:30:14 12:40:51 38° 254° (WSW) 12:51:02 29.354- 29.394
LO-87 30 May 12:40:37 12:43:44 29° 289° (WNW) 12:46:51 145.935 - 145.965
EO-79 30 May 12:44:32 12:47:57 24° 265° (W) 12:51:24 145.935-145.965
SPROUT 30 May 12:58:53 13:03:02 46° 99° (E) 13:07:09 437.525
ESTCUBE 1 30 May 13:00:39 13:04:56 44° 289° (WNW) 13:09:11 437.505/2401.250
AO-7 30 May 13:09:04 13:13:22 15° 45° (NE) 13:17:41 .
Oscar 19 30 May 13:16:05 13:21:14 65° 73° (ENE) 13:26:23 437.125/150
YUBILEINY 30 May 13:18:15 13:26:31 46° 272° (W) 13:34:44 435.215
50 SAT 30 May 13:21:44 13:24:57 38° 99° (E) 13:28:07 437.505
Gurwin Techsat 1B 30 May 13:28:22 13:33:29 52° 71° (ENE) 13:38:39 435.225
BEESAT 2 30 May 13:29:55 13:33:45 38° 51° (NE) 13:37:32 435.950
AO-85 30 May 13:31:57 13:35:26 27° 245° (WSW) 13:39:05 145.980
BUGSAT 1 30 May 13:35:54 13:39:12 24° 265° (W) 13:42:31 437.445
VELOX 1 30 May 13:37:21 13:41:43 70° 285° (WNW) 13:46:04 145.980
BEESAT 3 30 May 13:40:09 13:44:08 62° 240° (WSW) 13:48:02 437.485
UKube-1 30 May 13:42:21 13:46:11 30° 97° (E) 13:49:59 .
DX 1 30 May 13:58:41 14:03:00 69° 102° (ESE) 14:07:19 434.975-435.025
NO-84 30 May 14:01:53 14:05:43 47° 34° (NE) 14:09:13 435.350 FM
O/OREOS (USA 219) 30 May 14:05:40 14:09:32 29° 256° (WSW) 14:13:22 437.305
ITAMSAT 1 30 May 14:28:09 14:32:27 27° 65° (ENE) 14:36:47 435.822/435.867
SPROUT 30 May 14:35:50 14:38:34 17° 296° (WNW) 14:41:18 437.525
BEESAT 30 May 14:55:42 14:58:59 18° 92° (E) 15:02:14 436.000
50 SAT 30 May 14:56:00 14:57:26 12° 295° (WNW) 14:58:52 437.505
AO-7 30 May 14:56:23 15:04:30 63° 66° (ENE) 15:12:40 .
Oscar 19 30 May 14:57:56 15:00:59 16° 269° (W) 15:04:03 437.125/150
BEESAT 2 30 May 15:08:13 15:11:15 20° 248° (WSW) 15:14:15 435.950
Gurwin Techsat 1B 30 May 15:09:50 15:13:44 20° 268° (W) 15:17:38 435.225
UKube-1 30 May 15:18:35 15:22:04 24° 293° (WNW) 15:25:32 .
MOZHAYETS 4 30 May 15:35:43 15:39:39 26° 95° (E) 15:43:32
DX 1 30 May 15:36:52 15:38:36 12° 299° (WNW) 15:40:21 434.975-435.025
NO-84 30 May 15:40:07 15:42:59 21° 234° (SW) 15:45:39 435.350 FM
ITUPSAT 1 30 May 16:01:42 16:06:33 81° 103° (ESE) 16:11:21 437.325
ITAMSAT 1 30 May 16:06:57 16:11:44 38° 262° (W) 16:16:34 435.822/435.867
DOVE 4 30 May 16:30:01 16:31:59 13° 63° (ENE) 16:33:54 437.250
BEESAT 30 May 16:32:22 16:37:01 50° 289° (WNW) 16:41:37 436.000
CUBESAT XI-V 30 May 16:34:01 16:37:23 20° 92° (E) 16:40:44 437.345
AO-7 30 May 16:50:44 16:57:43 30° 265° (W) 17:04:47 .
CUTE-I 30 May 16:56:38 16:59:52 17° 60° (ENE) 17:03:08 437.470
XW-2D 30 May 17:07:49 17:10:04 15° 65° (ENE) 17:12:19 145.860 - 145.880
NUDT-PHONESAT 30 May 17:10:56 17:12:23 12° 64° (ENE) 17:13:50 437.300
MOZHAYETS 4 30 May 17:12:40 17:16:47 32° 291° (WNW) 17:20:52
XW-2B 30 May 17:15:29 17:18:05 18° 67° (ENE) 17:20:42 145.730 - 145.750
XW-2F 30 May 17:24:22 17:27:19 21° 68° (ENE) 17:30:16 145.980 - 146.000
KAITUO 1B 30 May 17:24:37 17:27:12 18° 67° (ENE) 17:29:48 145.475/437.950
XW-2C 30 May 17:28:43 17:31:53 25° 69° (ENE) 17:35:05 145.795 - 145.815
KKS-1 30 May 17:32:35 17:37:01 63° 102° (ESE) 17:41:25 437.445
HO-68 30 May 17:37:30 17:42:02 18° 53° (NE) 17:46:34 435.675
ITUPSAT 1 30 May 17:41:37 17:43:41 13° 301° (WNW) 17:45:46 437.325
Tancredo 1 30 May 17:47:54 17:49:26 13° 131° (SE) 17:50:57 437.200
STARS 30 May 17:50:48 17:54:59 41° 99° (E) 17:59:09 437.465
DOVE 4 30 May 18:04:45 18:09:13 63° 259° (WSW) 18:13:30 437.250
CUBESAT XI-V 30 May 18:10:34 18:14:56 42° 289° (WNW) 18:19:16 437.345
LilacSat-2 30 May 18:11:17 18:15:07 88° 77° (ENE) 18:19:01 437.200
CUTE 1.7 + AOD 2 30 May 18:11:58 18:14:02 13° 63° (ENE) 18:16:05 437.475
CUTE-I 30 May 18:34:02 18:39:19 71° 257° (WSW) 18:44:39 437.470
PCSat 30 May 18:35:19 18:40:43 77° 117° (ESE) 18:46:11 145.827
XW-2D 30 May 18:40:17 18:43:54 40° 262° (W) 18:47:33 145.860 - 145.880
NUDT-PHONESAT 30 May 18:42:11 18:45:49 51° 260° (W) 18:49:30 437.300
XW-2B 30 May 18:48:32 18:52:01 34° 263° (W) 18:55:33 145.730 - 145.750
SEEDS 30 May 18:50:56 18:54:12 22° 67° (ENE) 18:57:29 437.485
KAITUO 1B 30 May 18:57:31 19:00:57 33° 263° (W) 19:04:25 145.475/437.950
XW-2F 30 May 18:58:01 19:01:17 27° 264° (W) 19:04:36 145.980 - 146.000
ISS 30 May 19:02:38 19:05:48 46° 140° (SE) 19:08:59 437.550
XW-2C 30 May 19:02:57 19:06:01 23° 265° (W) 19:09:07 145.795 - 145.815
KKS-1 30 May 19:10:47 19:13:02 14° 298° (WNW) 19:15:18 437.445
HO-68 30 May 19:21:32 19:28:43 85° 73° (ENE) 19:35:59 435.675
Tancredo 1 30 May 19:21:44 19:24:48 68° 329° (NNW) 19:27:52 437.200
STARS 30 May 19:27:54 19:31:01 19° 295° (WNW) 19:34:09 437.465
XW-2A 30 May 19:33:15 19:36:36 90° 91° (E) 19:40:01 145.665 - 145.685
CUBEBUG 2 30 May 19:35:17 19:39:18 48° 72° (ENE) 19:43:27 437.445
AAUSAT CUBESAT 2 30 May 19:36:08 19:39:50 31° 70° (ENE) 19:43:32 437.432
UWE-3 30 May 19:36:10 19:39:52 30° 69° (ENE) 19:43:40 435.000/436.395/437.385
CUTE 1.7 + AOD 2 30 May 19:45:06 19:49:20 61° 260° (W) 19:53:37 437.475
STRAND 1 30 May 19:46:10 19:50:54 35° 97° (E) 19:55:35 437.568
Oscar 11 30 May 19:50:31 19:53:34 19° 65° (ENE) 19:56:38 .
PCSat 30 May 20:20:50 20:24:44 20° 317° (NW) 20:28:40 145.827
AO-73 30 May 20:21:33 20:25:39 48° 73° (ENE) 20:29:52 145.935
SEEDS 30 May 20:25:50 20:29:41 33° 263° (W) 20:33:34 437.485
SO-50 30 May 20:30:07 20:33:05 17° 110° (ESE) 20:36:03 436.795
ZACube-1 30 May 20:38:14 20:42:29 82° 76° (ENE) 20:46:52 437.345
ISS 30 May 20:39:29 20:42:25 29° 338° (NNW) 20:45:22 437.550
DELFI C3 30 May 20:48:32 20:51:29 20° 67° (ENE) 20:54:25 145.870
Tancredo 1 30 May 20:58:45 21:00:57 18° 346° (NNW) 21:03:10 437.200
AAUSAT CUBESAT 2 30 May 21:12:03 21:15:19 22° 266° (W) 21:18:35 437.432
HO-68 30 May 21:12:46 21:17:16 17° 270° (W) 21:21:48 435.675
UWE-3 30 May 21:12:54 21:16:20 24° 266° (W) 21:19:50 435.000/436.395/437.385
CUBEBUG 2 30 May 21:13:56 21:16:14 14° 270° (W) 21:18:36 437.445
EO-88 30 May 21:16:03 21:19:11 27° 70° (ENE) 21:22:19 145.990 - 145.960
Oscar 11 30 May 21:25:17 21:29:23 41° 262° (W) 21:33:32 .
STRAND 1 30 May 21:25:32 21:29:56 29° 294° (WNW) 21:34:21 437.568
FO-29 30 May 21:34:48 21:39:37 20° 91° (E) 21:44:42 435.910
M-CUBED/EXP-1 PRIME 30 May 21:38:20 21:41:33 55° 106° (ESE) 21:44:46 437.505
UNISAT 6 30 May 21:47:25 21:50:07 15° 91° (E) 21:52:50 437.425
AO-73 30 May 21:59:41 22:02:11 15° 270° (W) 22:04:43 145.935
PRISM 30 May 22:03:22 22:06:37 23° 95° (E) 22:09:50 437.425
SO-50 30 May 22:08:38 22:13:07 56° 307° (NW) 22:17:36 436.795
ISS 30 May 22:17:34 22:19:42 16° 358° (N) 22:21:49 437.550
DELFI C3 30 May 22:22:28 22:26:03 31° 263° (W) 22:29:38 145.870
ESTCUBE 1 30 May 22:24:58 22:28:06 19° 64° (ENE) 22:31:14 437.505/2401.250
Tancredo 1 30 May 22:35:42 22:37:34 15° 6° (N) 22:39:26 437.200
TIGRISAT 30 May 22:49:19 22:53:56 61° 101° (E) 22:58:34 435.000
EO-88 30 May 22:50:09 22:52:52 19° 266° (W) 22:55:35 145.990 - 145.960
VELOX 1 30 May 23:01:38 23:03:09 12° 61° (ENE) 23:04:41 145.980
LO-87 30 May 23:16:22 23:19:53 72° 258° (WSW) 23:23:25 145.935 - 145.965
FO-29 30 May 23:18:24 23:25:04 78° 286° (WNW) 23:32:31 435.910
UNISAT 6 30 May 23:22:35 23:27:08 57° 287° (WNW) 23:31:44 437.425
NANOSAT C BR1 30 May 23:36:08 23:37:43 12° 90° (E) 23:39:17 145.865
PRISM 30 May 23:38:23 23:41:52 28° 292° (WNW) 23:45:22 437.425
DUCHIFAT 1 30 May 23:43:48 23:45:47 13° 91° (E) 23:47:45 145.980
POLYITAN 1 30 May 23:44:18 23:47:04 17° 92° (E) 23:49:49 437.675
SPROUT 30 May 23:52:31 23:56:25 37° 71° (ENE) 00:00:20 437.525
QB50P2 30 May 23:52:46 23:56:09 22° 94° (E) 23:59:30 145.880/145.840
SO-50 30 May 23:53:25 23:54:35 11° 328° (NNW) 23:55:44 436.795
ISS 30 May 23:54:18 23:57:03 23° 18° (NNE) 23:59:46 437.550
50 SAT 30 May 23:55:08 23:57:22 16° 67° (ENE) 23:59:36 437.505
ESTCUBE 1 31 May 00:00:11 00:04:33 46° 261° (W) 00:08:56 437.505/2401.250
Tancredo 1 31 May 00:11:06 00:13:57 34° 26° (NNE) 00:16:48 437.200
AIST 2D 31 May 00:21:39 00:25:14 80° 281° (WNW) 00:28:46 435.315
YUBILEINY 31 May 00:22:57 00:31:04 45° 88° (E) 00:39:15 435.215
TIGRISAT 31 May 00:27:24 00:30:08 16° 297° (WNW) 00:32:51 435.000
EO-79 31 May 00:27:33 00:31:43 49° 100° (E) 00:35:51 145.935-145.965
VELOX 1 31 May 00:34:34 00:38:59 76° 257° (WSW) 00:43:24 145.980
UKube-1 31 May 00:37:13 00:40:54 28° 68° (ENE) 00:44:35 .
RS-15 31 May 00:40:39 00:51:24 40° 106° (ESE) 01:02:20 29.354- 29.394
DX 1 31 May 00:54:16 00:58:33 63° 74° (ENE) 01:02:51 434.975-435.025
FO-29 31 May 01:05:37 01:09:17 16° 302° (WNW) 01:13:09 435.910
NANOSAT C BR1 31 May 01:09:36 01:13:48 61° 286° (WNW) 01:18:00 145.865
BUGSAT 1 31 May 01:15:59 01:19:58 41° 99° (E) 01:23:57 437.445
DUCHIFAT 1 31 May 01:17:36 01:21:46 55° 286° (WNW) 01:25:55 145.980
POLYITAN 1 31 May 01:18:58 01:23:02 44° 288° (WNW) 01:27:07 437.675
50 SAT 31 May 01:26:59 01:30:00 28° 263° (W) 01:33:01 437.505
Oscar 19 31 May 01:27:56 01:31:52 22° 93° (E) 01:35:45 437.125/150
QB50P2 31 May 01:28:09 01:31:57 32° 291° (WNW) 01:35:46 145.880/145.840
SPROUT 31 May 01:29:24 01:32:26 19° 267° (W) 01:35:30 437.525
ISS 31 May 01:30:32 01:33:49 75° 216° (SW) 01:37:05 437.550
ITUPSAT 1 31 May 01:34:25 01:36:18 12° 59° (ENE) 01:38:12 437.325
PCSat 31 May 01:40:56 01:43:42 14° 37° (NE) 01:46:28 145.827
Gurwin Techsat 1B 31 May 01:44:53 01:48:40 19° 92° (E) 01:52:26 435.225
Tancredo 1 31 May 01:46:56 01:49:38 28° 223° (SW) 01:52:18 437.200
BEESAT 31 May 02:02:27 02:06:09 23° 65° (ENE) 02:09:53 436.000
EO-79 31 May 02:04:29 02:07:04 16° 296° (WNW) 02:09:40 145.935-145.965
UKube-1 31 May 02:13:15 02:16:52 26° 264° (W) 02:20:30 .
YUBILEINY 31 May 02:19:50 02:27:54 41° 288° (WNW) 02:36:06 435.215
DX 1 31 May 02:33:31 02:35:08 12° 270° (W) 02:36:46 434.975-435.025
MOZHAYETS 4 31 May 02:37:59 02:41:52 27° 67° (ENE) 02:45:46
O/OREOS (USA 219) 31 May 02:39:02 02:43:00 29° 104° (ESE) 02:46:59 437.305
RS-15 31 May 02:51:07 03:03:13 67° 309° (NW) 03:15:37 29.354- 29.394
BUGSAT 1 31 May 02:52:13 02:55:01 18° 295° (WNW) 02:57:48 437.445
AO-7 31 May 02:59:04 03:04:22 18° 90° (E) 03:09:39 .
Oscar 19 31 May 03:06:29 03:11:25 46° 290° (WNW) 03:16:17 437.125/150
ITUPSAT 1 31 May 03:08:40 03:13:25 83° 255° (WSW) 03:18:15 437.325
PCSat 31 May 03:22:43 03:28:09 68° 58° (ENE) 03:33:33 145.827
Gurwin Techsat 1B 31 May 03:23:45 03:28:57 54° 289° (WNW) 03:34:06 435.225
BEESAT 3 31 May 03:31:07 03:33:50 18° 111° (ESE) 03:36:36 437.485
CUBESAT XI-V 31 May 03:37:42 03:41:16 22° 66° (ENE) 03:44:51 437.345
BEESAT 31 May 03:39:13 03:43:40 40° 262° (W) 03:48:11 436.000
AO-85 31 May 03:46:10 03:50:20 79° 121° (ESE) 03:54:19 145.980
MOZHAYETS 4 31 May 04:14:50 04:18:54 31° 264° (W) 04:23:02
O/OREOS (USA 219) 31 May 04:18:21 04:22:21 29° 301° (WNW) 04:26:22 437.305
ITAMSAT 1 31 May 04:18:38 04:23:53 71° 103° (ESE) 04:29:05 435.822/435.867
KKS-1 31 May 04:30:47 04:35:08 61° 73° (ENE) 04:39:30 437.445
STARS 31 May 04:47:41 04:51:44 39° 70° (ENE) 04:55:48 437.465
AO-7 31 May 04:49:45 04:58:10 88° 109° (ESE) 05:06:34 .
BEESAT 2 31 May 04:58:35 05:02:29 58° 119° (ESE) 05:06:27 435.950
SO-50 31 May 04:59:33 05:03:01 21° 42° (NE) 05:06:30 436.795
BEESAT 3 31 May 05:07:20 05:11:06 41° 309° (NW) 05:14:57 437.485
PCSat 31 May 05:07:30 05:10:57 17° 255° (WSW) 05:14:23 145.827
RS-15 31 May 05:08:22 05:18:41 29° 339° (NNW) 05:29:00 29.354- 29.394
CUBESAT XI-V 31 May 05:13:55 05:18:22 41° 262° (W) 05:22:50 437.345
AO-85 31 May 05:29:09 05:31:11 13° 320° (NW) 05:33:12 145.980
